Weather History for Billings, MT

Change the Weather History Date:

Saturday, February 16, 2013

  Actual Average Record
Temperature  
Mean Temperature 39 °F 30 °F  
Max Temperature 49 °F 40 °F 65 °F (1996)
Min Temperature 28 °F 21 °F -28 °F (1936)
Degree Days  
Heating Degree Days 26 35  
Month to date heating degree days 485 573  
Since 1 July heating degree days 4164 4569  
Cooling Degree Days 0 0  
Month to date cooling degree days 0 0  
Year to date cooling degree days 0 0  
Moisture  
Dew Point 21 °F    
Average Humidity 54    
Maximum Humidity 69    
Minimum Humidity 38    
Precipitation  
Precipitation 0.00 in 0.01 in 0.23 in (1959)
Month to date precipitation 0.20 0.25  
Year to date precipitation 0.79 0.73  
Snow  
Snow 0.00 in 0.30 in 2.80 in (1959)
Month to date snowfall 3.0 3.3  
Since 1 July snowfall 30.7 31.6  
Snow Depth 0.00 in    
Sea Level Pressure  
Sea Level Pressure 30.01 in    
Wind  
Wind Speed 19 mph (SW)    
Max Wind Speed 28 mph    
Max Gust Speed 34 mph    
Visibility 10 miles    
Events      
T = Trace of Precipitation, MM = Missing Value Source: NWS Daily Summary

Daily Weather History Graph

Daily Weather History Graph

Search for Another Location

Airport:

Trip Planner

Search our weather history database for the weather conditions in past years. The results will help you decide how hot, cold, wet, or windy it might be!

Date:

Astronomy

Feb. 16, 2013 Rise Set
Actual Time 7:14 AM MST 5:42 PM MST
Civil Twilight 6:43 AM MST 6:13 PM MST
Nautical Twilight 6:09 AM MST 6:48 PM MST
Astronomical Twilight 5:34 AM MST 7:22 PM MST
Moon 10:06 AM MST (2/16) 12:07 AM MST (2/16)
Length of Visible Light 11h 29m
Length of Day
10h 28m
Waxing Crescent, 40% of the Moon is Illuminated
Feb 16
Waxing Crescent
Feb 17
First Quarter
Feb 25
Full
Mar 4
Last Quarter
Mar 11
New

Hourly Weather History & Observations

Time (MST) Temp. Windchill Dew Point Humidity Pressure Visibility Wind Dir Wind Speed Gust Speed Precip Events Conditions
12:53 AM 30.0 °F 17.5 °F 19.9 °F 66% 30.20 in 10.0 mi SW 19.6 mph - N/A   Clear
1:53 AM 30.0 °F 16.6 °F 19.0 °F 64% 30.18 in 10.0 mi SW 23.0 mph - N/A   Clear
2:53 AM 28.9 °F 15.8 °F 19.0 °F 67% 30.18 in 10.0 mi SW 20.7 mph - N/A   Clear
3:53 AM 28.0 °F 17.5 °F 19.0 °F 69% 30.17 in 10.0 mi SSW 12.7 mph - N/A   Clear
4:53 AM 30.2 °F 20.2 °F 19.4 °F 64% 30.07 in 10.0 mi SW 12.7 mph - N/A   Clear
5:53 AM 30.0 °F 18.3 °F 19.0 °F 64% 30.16 in 10.0 mi WSW 17.3 mph - N/A   Clear
6:53 AM 30.0 °F 16.3 °F 19.0 °F 64% 30.15 in 10.0 mi WSW 24.2 mph 31.1 mph N/A   Partly Cloudy
7:53 AM 30.0 °F 16.6 °F 18.0 °F 61% 30.15 in 10.0 mi WSW 23.0 mph - N/A   Partly Cloudy
8:53 AM 33.1 °F 20.6 °F 19.0 °F 56% 30.13 in 10.0 mi SW 23.0 mph 29.9 mph N/A   Partly Cloudy
9:53 AM 37.0 °F 26.2 °F 19.9 °F 50% 30.12 in 10.0 mi SW 21.9 mph 28.8 mph N/A   Partly Cloudy
10:53 AM 42.1 °F 33.6 °F 21.9 °F 45% 30.09 in 10.0 mi SW 18.4 mph 28.8 mph N/A   Partly Cloudy
11:53 AM 45.0 °F 37.1 °F 23.0 °F 42% 30.05 in 10.0 mi WSW 19.6 mph - N/A   Clear
12:53 PM 46.4 °F 38.1 °F 23.0 °F 40% 29.96 in 10.0 mi WSW 24.2 mph 33.4 mph N/A   Clear
1:53 PM 45.0 °F 36.6 °F 23.0 °F 42% 29.99 in 10.0 mi WSW 21.9 mph - N/A   Partly Cloudy
2:53 PM 48.0 °F - 25.0 °F 41% 29.96 in 10.0 mi WSW 15.0 mph - N/A   Partly Cloudy
3:53 PM 48.9 °F - 24.1 °F 38% 29.94 in 10.0 mi SW 15.0 mph - N/A   Clear
4:53 PM 46.0 °F 38.3 °F 24.1 °F 42% 29.92 in 10.0 mi WSW 20.7 mph 26.5 mph N/A   Clear
5:53 PM 42.1 °F 34.2 °F 23.0 °F 47% 29.91 in 10.0 mi WSW 16.1 mph 25.3 mph N/A   Clear
6:53 PM 39.0 °F 30.6 °F 21.9 °F 50% 29.91 in 10.0 mi SW 15.0 mph - N/A   Clear
7:53 PM 39.0 °F 28.8 °F 21.9 °F 50% 29.88 in 10.0 mi WSW 21.9 mph - N/A   Clear
8:53 PM 37.9 °F 27.9 °F 21.9 °F 53% 29.86 in 10.0 mi WSW 19.6 mph - N/A   Clear
9:53 PM 39.0 °F 28.8 °F 21.9 °F 50% 29.81 in 10.0 mi WSW 21.9 mph 26.5 mph N/A   Clear
10:53 PM 39.0 °F 29.6 °F 21.0 °F 49% 29.76 in 10.0 mi WSW 18.4 mph - N/A   Clear
11:53 PM 39.9 °F 30.5 °F 21.0 °F 47% 29.74 in 10.0 mi WSW 19.6 mph - N/A   Clear